Flag Weather past 2 weeks in Bimbo, Central African Republic

Now
77 °F

Scattered clouds.


Feels Like: 78 °F
Forecast: 67 / 92 °F
Wind: 3 mph from North

Location: Bangui Airport

Current Time: Nov 28, 2014 at 6:05:10 PM

Latest Report: Nov 28, 2014 at 5:00 PM


Visibility: 5 mi

Pressure: 29.80 "Hg

Humidity: 89%

Dew point: 73 °F

Location of BimboLocation

Historic Weather in Bimbo — Graph

°F

Bimbo temperature yesterday

Maximum temperature yesterday: 90 °F (at 12:00 PM)
Minimum temperature yesterday: 72 °F (at 4:00 AM)
Average temperature yesterday: 79 °F

Past Weeks' High & Low Weather Summary

 TemperatureHumidityPressure
High93 °F (Nov 18, 3:00 PM)100% (Nov 13, 8:00 PM)30.04 "Hg (Nov 13, 8:00 PM)
Low68 °F (Nov 23, 3:00 AM)52% (Nov 21, 2:00 PM)29.71 "Hg (Nov 17, 3:00 PM)
Average77 °F86%29.86 "Hg
* Reported Nov 13 4:00 PM — Nov 28 4:00 PM, Bimbo, Weather by CustomWeather, © 2014

Note: Actual official high and low records may vary slightly from our data, if they occured in-between our weather recording intervals... More about our weather records

Advertising

Bimbo weather history for previous 24 hours

 ConditionsComfort  
Time TempWeatherWind HumidityBarometerVisibility
4:00 PM
Nov 28
81 °FThunderstorms. Broken clouds.2 mph79%29.80 "Hg2 mi
3:00 PM86 °FBroken clouds.3 mph70%29.80 "HgN/A
2:00 PM91 °FBroken clouds.No wind52%29.80 "HgN/A
1:00 PM91 °FScattered clouds.2 mph56%29.83 "HgN/A
12:00 PM91 °FScattered clouds.2 mph56%29.86 "HgN/A
11:00 AM88 °FScattered clouds.2 mph62%29.89 "HgN/A
10:00 AM86 °FScattered clouds.1 mph70%29.92 "Hg4 mi
9:00 AM81 °FScattered clouds.No wind84%29.92 "Hg4 mi
8:00 AM75 °FFog.2 mph94%29.92 "Hg1 mi
7:00 AM72 °FPartly sunny.No wind100%29.92 "Hg1 mi
6:00 AM72 °FPartly sunny.No wind100%29.92 "Hg1 mi
5:00 AM70 °FClear.No wind100%29.89 "Hg10 mi
4:00 AM70 °FClear.No wind100%29.89 "Hg10 mi
3:00 AM72 °FClear.2 mph100%29.86 "Hg10 mi
2:00 AM72 °FClear.No wind100%29.86 "Hg10 mi
1:00 AM72 °FClear.2 mph100%29.86 "Hg10 mi
12:00 AM73 °FClear.2 mph94%29.86 "Hg10 mi
11:00 PM
Nov 27
73 °FClear.No wind100%29.86 "Hg10 mi
10:00 PM73 °FClear.No wind100%29.86 "Hg10 mi
9:00 PM75 °FClear.1 mph94%29.86 "Hg10 mi
8:00 PM77 °FClear.No wind89%29.86 "Hg4 mi
7:00 PM77 °FThunderstorms. Passing clouds.No wind89%29.80 "Hg4 mi
6:00 PM79 °FThunderstorms. Passing clouds.2 mph84%29.80 "Hg4 mi
Weather by CustomWeather, © 2014

See weather overviewHow to use our weather pages